Time,TemperatureF,DewpointF,PressureIn,WindDirection,WindDirectionDegrees,WindSpeedMPH,WindSpeedGustMPH,Humidity,HourlyPrecipIn,Conditions,Clouds,dailyrainin,SoftwareType,DateUTC
2013-03-11 00:00:00,18.5,11.3,30.43,NW,315,0.0,1.0,73,0.00,,---,0.00,VWS V14.01,2013-03-11 08:00:00,
2013-03-11 00:30:00,18.0,10.2,30.44,NW,315,0.0,1.0,71,0.00,,---,0.00,VWS V14.01,2013-03-11 08:30:00,
2013-03-11 01:00:00,17.6,10.7,30.46,NW,315,0.0,2.0,74,0.00,,---,0.00,VWS V14.01,2013-03-11 09:00:00,
2013-03-11 01:30:00,16.9,10.7,30.47,NW,315,0.0,0.0,76,0.00,,---,0.00,VWS V14.01,2013-03-11 09:30:00,
2013-03-11 02:00:00,16.6,10.7,30.48,NW,315,0.0,1.0,77,0.00,,---,0.00,VWS V14.01,2013-03-11 10:00:00,
2013-03-11 02:30:00,16.9,10.4,30.48,NW,315,0.0,0.0,75,0.00,,---,0.00,VWS V14.01,2013-03-11 10:30:00,
2013-03-11 03:00:00,16.2,10.6,30.49,NW,315,0.0,1.0,78,0.00,,---,0.00,VWS V14.01,2013-03-11 11:00:00,
2013-03-11 03:30:00,15.4,11.4,30.51,NW,315,0.0,0.0,84,0.00,,---,0.00,VWS V14.01,2013-03-11 11:30:00,
2013-03-11 04:00:00,14.9,11.2,30.51,NW,315,0.0,0.0,85,0.00,,---,0.00,VWS V14.01,2013-03-11 12:00:00,
2013-03-11 04:30:00,14.6,11.2,30.52,NW,315,0.0,0.0,86,0.00,,---,0.00,VWS V14.01,2013-03-11 12:30:00,
2013-03-11 05:00:00,14.5,10.8,30.53,NW,315,0.0,0.0,85,0.00,,---,0.00,VWS V14.01,2013-03-11 13:00:00,
2013-03-11 05:30:00,14.4,11.2,30.54,NW,315,0.0,0.0,87,0.00,,---,0.00,VWS V14.01,2013-03-11 13:30:00,
2013-03-11 06:00:00,14.3,10.6,30.55,NW,315,0.0,1.0,85,0.00,,---,0.00,VWS V14.01,2013-03-11 14:00:00,
2013-03-11 06:30:00,14.4,11.0,30.56,NW,315,1.0,3.0,86,0.00,,---,0.00,VWS V14.01,2013-03-11 14:30:00,
2013-03-11 07:00:00,15.0,11.1,30.57,NNW,338,1.0,4.0,84,0.00,,---,0.00,VWS V14.01,2013-03-11 15:00:00,
2013-03-11 07:30:00,15.4,11.4,30.57,NNW,338,0.0,3.0,84,0.00,,---,0.00,VWS V14.01,2013-03-11 15:30:00,
2013-03-11 08:00:00,15.1,11.1,30.59,NNW,338,0.0,2.0,84,0.00,,---,0.00,VWS V14.01,2013-03-11 16:00:00,
2013-03-11 08:30:00,14.7,11.0,30.59,NNW,338,0.0,1.0,85,0.00,,---,0.00,VWS V14.01,2013-03-11 16:30:00,
2013-03-11 09:00:00,14.3,10.6,30.59,NNW,338,0.0,1.0,85,0.00,,---,0.00,VWS V14.01,2013-03-11 17:00:00,
2013-03-11 09:30:00,13.7,10.3,30.61,NNW,338,0.0,0.0,86,0.00,,---,0.00,VWS V14.01,2013-03-11 17:30:00,
2013-03-11 10:00:00,14.5,10.8,30.61,NNW,338,0.0,1.0,85,0.00,,---,0.00,VWS V14.01,2013-03-11 18:00:00,
2013-03-11 10:30:00,14.9,10.7,30.63,NNW,338,0.0,2.0,83,0.00,,---,0.00,VWS V14.01,2013-03-11 18:30:00,
2013-03-11 11:00:00,15.6,10.8,30.64,NNW,338,0.0,3.0,81,0.00,,---,0.00,VWS V14.01,2013-03-11 19:00:00,
2013-03-11 11:30:00,16.6,11.5,30.64,NNW,338,0.0,4.0,80,0.00,,---,0.00,VWS V14.01,2013-03-11 19:30:00,
2013-03-11 12:00:00,16.1,11.3,30.65,NNW,338,0.0,2.0,81,0.00,,---,0.00,VWS V14.01,2013-03-11 20:00:00,
2013-03-11 12:30:00,16.5,11.7,30.66,NNW,338,0.0,3.0,81,0.00,,---,0.00,VWS V14.01,2013-03-11 20:30:00,
2013-03-11 13:00:00,19.3,13.0,30.66,NNW,338,1.0,3.0,76,0.00,,---,0.00,VWS V14.01,2013-03-11 21:00:00,
2013-03-11 13:30:00,18.8,12.2,30.66,SW,225,1.0,4.0,75,0.00,,---,0.00,VWS V14.01,2013-03-11 21:30:00,
2013-03-11 14:00:00,20.6,12.7,30.67,SW,225,1.0,4.0,71,0.00,,---,0.00,VWS V14.01,2013-03-11 22:00:00,
2013-03-11 14:30:00,21.8,12.9,30.67,SW,225,1.0,4.0,68,0.00,,---,0.00,VWS V14.01,2013-03-11 22:30:00,
2013-03-11 15:00:00,21.1,12.5,30.67,South,180,1.0,5.0,69,0.00,,---,0.00,VWS V14.01,2013-03-11 23:00:00,
2013-03-11 15:30:00,21.5,12.6,30.67,SSW,202,2.0,5.0,68,0.00,,---,0.00,VWS V14.01,2013-03-11 23:30:00,
2013-03-11 16:00:00,22.1,12.8,30.67,SW,225,2.0,4.0,67,0.00,,---,0.00,VWS V14.01,2013-03-12 00:00:00,
2013-03-11 16:30:00,22.6,13.0,30.68,SW,225,1.0,3.0,66,0.00,,---,0.00,VWS V14.01,2013-03-12 00:30:00,
2013-03-11 17:00:00,22.1,12.8,30.68,SW,225,2.0,5.0,67,0.00,,---,0.00,VWS V14.01,2013-03-12 01:00:00,
2013-03-11 17:30:00,22.5,13.2,30.68,SW,225,1.0,4.0,67,0.00,,---,0.00,VWS V14.01,2013-03-12 01:30:00,
2013-03-11 18:00:00,21.6,13.0,30.68,SSW,202,1.0,3.0,69,0.00,,---,0.00,VWS V14.01,2013-03-12 02:00:00,
2013-03-11 18:30:00,20.8,12.9,30.69,SSE,158,0.0,2.0,71,0.00,,---,0.00,VWS V14.01,2013-03-12 02:30:00,
2013-03-11 19:00:00,19.8,12.2,30.69,SSE,158,0.0,1.0,72,0.00,,---,0.00,VWS V14.01,2013-03-12 03:00:00,
2013-03-11 19:30:00,19.4,11.9,30.69,SSE,158,0.0,1.0,72,0.00,,---,0.00,VWS V14.01,2013-03-12 03:30:00,
2013-03-11 20:00:00,19.4,10.6,30.69,East,90,1.0,6.0,68,0.00,,---,0.00,VWS V14.01,2013-03-12 04:00:00,
2013-03-11 20:30:00,18.9,9.4,30.70,NE,45,1.0,5.0,66,0.00,,---,0.00,VWS V14.01,2013-03-12 04:30:00,
2013-03-11 21:00:00,18.0,8.9,30.70,NE,45,1.0,7.0,67,0.00,,---,0.00,VWS V14.01,2013-03-12 05:00:00,
2013-03-11 21:30:00,17.5,7.8,30.71,ENE,68,2.0,7.0,65,0.00,,---,0.00,VWS V14.01,2013-03-12 05:30:00,
2013-03-11 22:00:00,16.7,7.0,30.70,ENE,68,2.0,8.0,65,0.00,,---,0.00,VWS V14.01,2013-03-12 06:00:00,
2013-03-11 22:30:00,16.2,6.8,30.70,NE,45,3.0,12.0,66,0.00,,---,0.00,VWS V14.01,2013-03-12 06:30:00,
2013-03-11 23:00:00,16.1,6.8,30.71,NE,45,4.0,17.0,66,0.00,,---,0.00,VWS V14.01,2013-03-12 07:00:00,
2013-03-11 23:30:00,15.6,6.6,30.71,ENE,68,2.0,11.0,67,0.00,,---,0.00,VWS V14.01,2013-03-12 07:30:00,